Location: Laura�t
(43.9341°N, 0.2497°E)
Time: 23:31:54
(UTC+00:00)

BREEZE-M DEB (TANK) - Pass Details

Date: 03 March 2021
Orbit: 334 x 11905 km, 49.7° (Epoch: 17 April)

Event Time Altitude Azimuth Distance (km) Brightness Sun altitude
Rises 18:57:15 0° 212° (SSW) 2,357 7.1 -12.9°
Reaches altitude 10° 18:59:34 10° 194° (SSW) 1,288 5.4 -13.3°
Enters shadow 19:01:27 21° 140° (SE) 821 3.9 -13.6°
